User: anonymous   Login
Location: Unspecified
(0.0000°N, 0.0000°E)
Time: 16:53:18
(UTC+00:00)
Language:

USA 188 - Orbit

View from above orbital plane
View from above orbital plane
View from above satellite
View from above satellite

Ground track
Ground track

The orbit data is extracted from the following two-line orbital elements,

1 29241U 06024B   20006.16603055 0.00000000  00000-0  00000-0 0    07
2 29241   7.5727  53.1228 0007053  87.5973 272.4956  0.98856204    00
Epoch (UTC): 06 January 2020 03:59:05
Eccentricity: 0.0007053
inclination: 7.5727°
perigee height: 36158 km
apogee height: 36218 km
right ascension of ascending node: 53.1228°
argument of perigee: 87.5973°
revolutions per day: 0.98856204
mean anomaly at epoch: 272.4956°
orbit number at epoch: 0

The dashed part of the orbit path shows where the satellite is in the earth's shadow,  

DLR